World > North America > United States > New York

Hourly Eddy, NY Regional Weather

Feedback E-mail the Weather

Quick WX

Eddy, NY Weather Maps

°F °C°F °C
Eddy Weather Map
UTC Time: 7/5/2022, 10:32
Your Time:

Eddy, NY Regional Weather

Expires:202207051000;;716256
ASUS41 KBTV 050930
RWRBTV
VERMONT REGIONAL WEATHER ROUNDUP
NATIONAL WEATHER SERVICE BURLINGTON VT
500 AM EDT TUE JUL 05 2022

NOTE: "FAIR" INDICATES FEW OR NO CLOUDS BELOW 12,000 FEET WITH NO 
SIGNIFICANT WEATHER AND/OR OBSTRUCTIONS TO VISIBILITY.

* THESE REPORTS ARE NOT UNDER NWS QUALITY CONTROL AND/OR DO NOT
  REPORT WEATHER SUCH AS PRECIPITATION AND FOG.


NYZ007-026>031-035-052-083-087-051000-
_____NORTHERN NEW YORK_
  
CITY           SKY/WX    TMP DP  RH WIND       PRES   REMARKS
PLATTSBURGH    PTCLDY    59  52  77 SW3       30.04F                  
SARANAC LAKE   CLOUDY    52  51  97 CALM      30.08F                  
MASSENA        PTCLDY    60  51  72 S3        30.03F                  
OGDENSBURG*    MOCLDY    59  54  82 CALM      30.01S                  
POTSDAM*       CLOUDY    61  50  67 CALM      30.03F                  
WATERTOWN      MOCLDY    62  55  77 E3        30.01F                  
FT DRUM        MOCLDY    63  52  67 SE10      30.03F                  
ALBANY         CLOUDY    67  55  65 CALM      30.08F                  
GLENS FALLS    MOCLDY    59  55  87 CALM      30.07F                  

$$

SKY/WX - Weather  TMP - Temperature  DP - Dew Point  RH - Humidity
WIND - Wind Direction/Speed PRES - Barometric Pressure VSB - Visibility
WCI - Wind Chill Index E13G22 Wind - East Wind 13 mph/Gusts of 22 mph

Trending Headlines

Eddy Radar Loop



Eddy Quick Facts


National Two Day Weather Forecast


E-mail the Eddy Weather Forecast

Voice your opinion or tell us about page issues...